Location: Asheville, NC
(35.6000°N, 82.5500°W)
Time: 18:41:01
(UTC-05:00)

KAITUO 1B - Pass Details

Date: 09 February 2018
Orbit: 498 x 522 km, 97.5° (Epoch: 17 February)

Event Time Altitude Azimuth Distance (km) Brightness Sun altitude
Rises 06:03:52 0° 27° (NNE) 2,593 ? -16.6°
Reaches altitude 10° 06:06:17 10° 43° (NE) 1,708 ? -16.1°
Maximum altitude 06:09:13 22° 96° (E) 1,123 ? -15.5°
Drops below altitude 10° 06:12:09 10° 149° (SSE) 1,705 ? -14.9°
Sets 06:14:33 0° 165° (SSE) 2,589 ? -14.4°
